Contact Us:
Email: info@sawbill.com
Phone: (218)663-7150
Fax: (218)663-7980
Mail: 4620 Sawbill Trail
Box 2129
Tofte, MN 55615


Powered by
Movable Type 3.15
 
Sawbill Weather History Archives: June 2016
Current Sawbill Weather History | « May 2016 | July 2016 »


Date

High
Temperature

Low
Temperature

Barometric
Pressure

Relative
Humidity 7AM

9 AM
Temperature

Moisture

Snow

6/30/16 65 48 30.12 84% 49 0
6/29/16 76 57 30.00 98% 58 .93"
6/28/16 71 48 30.10 65% 61 0
6/27/16 59 49 30.20 85% 51 Trace
6/26/16 73 54 30.02 76% 54 .14"
6/25/16 69 58 29.88 78% 59 .42"
6/24/16 78 52 29.98 72% 60 0
6/23/16 76 52 30.06 66% 52 0
6/22/16 68 46 30.02 69% 53 0
6/21/16 69 44 30.02 68% 46 0
6/20/16 70 49 30.00 45% 62 0
6/19/16 83 60 29.98 50% 60 Trace
6/18/16 80 59 30.10 84% 62 .08"
6/17/16 76 50 30.18 75% 68 Trace
6/16/16 80 51 30.16 68% 61 0
6/15/16 60 45 30.08 98% 50 .05"
6/14/16 64 53 29.92 94% 56 .16"
6/13/16 59 47 30.04 91% 53 .03"
6/12/16 61 46 30.08 98% 47 1"
6/11/16 68 44 30.20 71% 46 0
6/10/16 71 52 29.98 72% 63 .4"
6/9/16 72 43 30.00 63% 52 0
6/8/16 65 41 30.09 68% 43 0
6/7/16 59 40 30.04 77% 41 0
6/6/16 56 45 29.98 65% 45 .07"
6/5/16 63 50 29.76 91% 53 .28"
6/4/16 57 50 29.84 97% 50 .33"
6/3/16 65 51 29.98 94% 52 .3"
6/2/16 59 42 30.06 80% 42 .76"
6/1/16 71 47 29.96 93% 51 .76"
 


Home I Trip Planning I Rentals and Outfitting I Reservations I Campgrounds I Sawbill Store I Sawbill News I Contact

© 1997 - 2017, Sawbill Canoe Outfitters, Inc. I Privacy Policy